Location: Zagreb
(45.8000°N, 16.0000°E)
Time: 13:45:47
(UTC+02:00)

Transit 2A Rocket - Pass Details

Date: 11 August 2022
Orbit: 593 x 907 km, 66.7° (Epoch: 25 September)

Event Time Altitude Azimuth Distance (km) Brightness Sun altitude
Rises 19:41:28 0° 215° (SW) 3,008 8.3 4.0°
Reaches altitude 10° 19:43:51 10° 217° (SW) 2,055 7.5 3.6°
Maximum altitude 19:48:26 76° 303° (WNW) 645 5.0 2.8°
Drops below altitude 10° 19:52:49 10° 30° (NNE) 1,953 7.0 2.1°
Sets 19:55:02 0° 32° (NNE) 2,846 7.8 1.7°
